Location: Cassagne
(43.1218°N, 0.9901°E)
Time: 04:19:59
(UTC+00:00)

ADEOS Rocket - Pass Details

Date: 17 February 2020
Orbit: 859 x 1306 km, 98.7° (Epoch: 09 April)

Event Time Altitude Azimuth Distance (km) Brightness Sun altitude
Rises 06:19:39 0° 178° (S) 3,584 6.1 -6.6°
Reaches altitude 10° 06:22:01 10° 183° (S) 2,694 5.4 -6.1°
Maximum altitude 06:27:58 56° 261° (W) 1,219 3.3 -5.1°
Drops below altitude 10° 06:34:38 10° 339° (NNW) 3,012 5.2 -3.9°
Sets 06:37:25 0° 343° (NNW) 4,041 5.9 -3.4°
